| time (UTC) | temp C | wind direction | speed KPH | gust KPH | rain 1hr cm | rain 24hr cm | rain mn cm | humidity % | barometer mb |
| 20260504050353 | 13 | 179 | 6.4 | 9.7 | 0.00 | 0.00 | 0.00 | 48 | 1002.8 |
| 20260504045853 | 13 | 201 | 6.4 | 8.0 | 0.00 | 0.00 | 0.00 | 48 | 1002.9 |
| 20260504045353 | 13 | 214 | 6.4 | 9.7 | 0.00 | 0.00 | 0.00 | 48 | 1002.9 |
| 20260504041851 | 13 | 179 | 6.4 | 9.7 | 0.00 | 0.00 | 0.00 | 46 | 1003.7 |
| 20260504041350 | 13 | 190 | 6.4 | 8.0 | 0.00 | 0.00 | 0.00 | 46 | 1003.9 |
| 20260504040350 | 13 | 191 | 6.4 | 8.0 | 0.00 | 0.00 | 0.00 | 46 | 1004.1 |
| 20260504035349 | 13 | 193 | 6.4 | 9.7 | 0.00 | 0.00 | 0.00 | 45 | 1004.4 |
| 20260504034849 | 13 | 184 | 6.4 | 8.0 | 0.00 | 0.00 | 0.00 | 45 | 1004.4 |
| 20260504034349 | 13 | 193 | 6.4 | 8.0 | 0.00 | 0.00 | 0.00 | 44 | 1004.5 |
| 20260504033849 | 13 | 201 | 6.4 | 8.0 | 0.00 | 0.00 | 0.00 | 45 | 1004.6 |
| 20260504033348 | 13 | 187 | 1.6 | 6.4 | 0.00 | 0.00 | 0.00 | 44 | 1004.7 |
| 20260504032848 | 13 | 0 | 0.0 | 0.0 | 0.00 | 0.00 | 0.00 | 43 | 1004.8 |
| 20260504032348 | 13 | 0 | 0.0 | 0.0 | 0.00 | 0.00 | 0.00 | 43 | 1004.9 |
| 20260504031847 | 13 | 0 | 0.0 | 0.0 | 0.00 | 0.00 | 0.00 | 43 | 1005.0 |
| 20260504031347 | 14 | 0 | 0.0 | 0.0 | 0.00 | 0.00 | 0.00 | 42 | 1005.1 |
| 20260504030847 | 14 | 0 | 0.0 | 0.0 | 0.00 | 0.00 | 0.00 | 41 | 1005.3 |
| 20260504025346 | 15 | 0 | 0.0 | 0.0 | 0.00 | 0.00 | 0.00 | 40 | 1005.4 |
| 20260504024345 | 15 | 0 | 0.0 | 0.0 | 0.00 | 0.00 | 0.00 | 38 | 1005.5 |
| 20260504023845 | 15 | 0 | 0.0 | 0.0 | 0.00 | 0.00 | 0.00 | 37 | 1005.5 |
| 20260504023345 | 16 | 0 | 0.0 | 0.0 | 0.00 | 0.00 | 0.00 | 36 | 1005.6 |
| 20260504020343 | 17 | 260 | 8.0 | 9.7 | 0.00 | 0.00 | 0.00 | 33 | 1005.8 |
| 20260503110244 | 10 | 0 | 0.0 | 0.0 | 0.00 | 0.00 | 0.00 | 63 | 1006.6 |
| 20260503100240 | 11 | 212 | 8.0 | 11.3 | 0.00 | 0.00 | 0.00 | 56 | 1006.5 |
| 20260503090237 | 12 | 0 | 0.0 | 0.0 | 0.00 | 0.00 | 0.00 | 54 | 1006.6 |
| 20260503080734 | 13 | 231 | 8.0 | 9.7 | 0.00 | 0.00 | 0.00 | 55 | 1007.0 |
| 20260503080234 | 13 | 233 | 8.0 | 11.3 | 0.00 | 0.00 | 0.00 | 55 | 1007.0 |
| 20260503072231 | 13 | 0 | 0.0 | 0.0 | 0.00 | 0.00 | 0.00 | 56 | 1007.3 |
| 20260503071231 | 13 | 0 | 0.0 | 0.0 | 0.00 | 0.00 | 0.00 | 57 | 1007.3 |
| 20260503070730 | 13 | 195 | 3.2 | 6.4 | 0.00 | 0.00 | 0.00 | 56 | 1007.3 |
| 20260503070230 | 13 | 0 | 0.0 | 0.0 | 0.00 | 0.00 | 0.00 | 56 | 1007.3 |